This demonstration page uses our WeatherBlox Daily Observations layout. Learn more.

Left ArrowRight Arrow

Hourly Observations for January 5, 2022

Temp ( °F °C ) Dew Point ( °F °C ) Humidity (%) Winds ( mph kmh ) Pressure ( in mb ) Visibility ( mi km ) Precip ( " mm )
12:53 am 00:53 Clear 46 7.8 37 2.8 71 71 ESE 6 9 29.90 1012 10 16 0.00 0.00
1:53 am 01:53 Clear 45 7.2 38 3.3 77 77 ESE 7 11 29.90 1013 10 16 0.00 0.00
2:53 am 02:53 Clear 45 7.2 38 3.3 77 77 E 5 7 29.90 1013 10 16 0.00 0.00
3:53 am 03:53 Clear 44 6.7 38 3.3 79 79 E 3 6 29.90 1013 10 16 0.00 0.00
4:53 am 04:53 Clear 41 5 37 2.8 86 86 ENE 3 6 29.90 1013 10 16 0.00 0.00
5:53 am 05:53 Clear 39 3.9 36 2.2 89 89 Calm 29.90 1013 10 16 0.00 0.00
6:53 am 06:53 Mostly Clear 42 5.6 39 3.9 89 89 NNE 3 6 29.93 1014 10 16 0.00 0.00
7:53 am 07:53 Mostly Sunny 42 5.6 39 3.9 89 89 VRB 5 7 29.95 1014 10 16 0.00 0.00
8:53 am 08:53 Mostly Sunny 45 7.2 40 4.4 83 83 NE 9 15 29.98 1015 10 16 0.00 0.00
9:53 am 09:53 Mostly Sunny 47 8.3 35 1.7 63 63 NE 10 17 30.01 1016 10 16 0.00 0.00
10:53 am 10:53 Mostly Sunny 50 10 32 0 50 50 NE 9 15 30.02 1017 10 16 0.00 0.00
11:53 am 11:53 Mostly Sunny 55 12.8 31 -0.6 40 40 NNE 9 15 29.99 1016 10 16 0.00 0.00
12:53 pm 12:53 Mostly Sunny 58 14.4 30 -1.1 35 35 NE 12 19 29.95 1014 10 16 0.00 0.00
1:53 pm 13:53 Mostly Sunny 60 15.6 29 -1.7 31 31 NE 10 17 29.91 1013 10 16 0.00 0.00
2:53 pm 14:53 Mostly Sunny 60 15.6 29 -1.7 31 31 E 8 13 29.88 1012 10 16 0.00 0.00
3:53 pm 15:53 Mostly Sunny 61 16.1 30 -1.1 31 31 NE 8 13 29.87 1012 10 16 0.00 0.00
4:53 pm 16:53 Mostly Sunny 60 15.6 30 -1.1 32 32 VRB 6 9 29.88 1012 10 16 0.00 0.00
5:53 pm 17:53 Mostly Clear 56 13.3 30 -1.1 37 37 N 3 6 29.88 1012 10 16 0.00 0.00
6:53 pm 18:53 Clear 56 13.3 30 -1.1 37 37 Calm 29.87 1012 10 16 0.00 0.00
7:53 pm 19:53 Clear 49 9.4 31 -0.6 50 50 VRB 6 9 29.89 1012 10 16 0.00 0.00
8:53 pm 20:53 Mostly Clear 47 8.3 29 -1.7 50 50 NNW 7 11 29.90 1013 10 16 0.00 0.00
9:53 pm 21:53 Mostly Clear 44 6.7 28 -2.2 53 53 NNW 5 7 29.92 1013 10 16 0.00 0.00
10:53 pm 22:53 Mostly Clear 44 6.7 25 -3.9 47 47 Calm 29.90 1012 10 16 0.00 0.00
11:53 pm 23:53 Mostly Clear 41 5 26 -3.3 55 55 NNW 6 9 29.91 1013 10 16 0.00 0.00

Powered by AerisWeather